Total_Precipitation_Accumulation
0.13 0.12 0.40 0.71 0.72 0.30 0.18 0.13 0.15 0.13 0.13 0.14 0.13 0.12 0.15 0.10 0.14 0.12 0.12 0.09 0.11 0.28 0.63 0.56 0.44 0.58 0.67 0.45 0.23 0.12 0.05 0.05 0.04 0.03 0.05 0.11 0.13 0.12 0.10 0.08 0.12 0.14 0.21
0.10 0.12 0.28 0.53 0.81 0.64 0.33 0.18 0.12 0.07 0.10 0.14 0.19 0.21 0.17 0.18 0.20 0.17 0.14 0.29 0.16 0.42 0.58 0.48 0.44 0.36 0.51 0.30 0.09 0.04 0.02 0.02 0.01 0.00 0.01 0.02 0.07 0.09 0.04 0.06 0.15 0.12 0.15
0.03 0.12 0.21 0.41 0.47 0.56 0.36 0.21 0.11 0.07 0.10 0.13 0.12 0.18 0.36 0.20 0.08 0.12 0.36 0.47 0.30 0.48 0.52 0.38 0.28 0.27 0.35 0.13 0.07 0.05 0.03 0.01 0.02 0.02 0.02 0.04 0.14 0.27 0.16 0.13 0.22 0.17 0.16
0.04 0.13 0.37 0.45 0.42 0.49 0.46 0.19 0.12 0.11 0.16 0.17 0.16 0.25 0.30 0.30 0.17 0.11 0.35 0.59 0.37 0.33 0.23 0.24 0.24 0.29 0.16 0.08 0.10 0.06 0.03 0.02 0.01 0.01 0.02 0.02 0.08 0.23 0.31 0.35 0.29 0.26 0.17
0.07 0.13 0.36 0.48 0.60 0.72 0.53 0.32 0.21 0.19 0.19 0.16 0.19 0.25 0.27 0.30 0.17 0.10 0.24 0.46 0.16 0.13 0.14 0.19 0.22 0.13 0.05 0.05 0.05 0.05 0.05 0.04 0.03 0.02 0.03 0.04 0.08 0.21 0.32 0.34 0.24 0.29 0.28
0.19 0.23 0.38 0.51 0.72 0.63 0.56 0.43 0.32 0.34 0.22 0.16 0.19 0.21 0.25 0.31 0.29 0.14 0.20 0.19 0.10 0.07 0.09 0.13 0.07 0.04 0.03 0.03 0.03 0.03 0.05 0.05 0.02 0.01 0.02 0.07 0.09 0.26 0.31 0.20 0.23 0.30 0.33
0.24 0.47 0.90 0.94 0.93 0.75 0.57 0.51 0.42 0.43 0.41 0.23 0.21 0.21 0.27 0.35 0.46 0.15 0.07 0.11 0.08 0.06 0.04 0.03 0.02 0.02 0.02 0.02 0.02 0.03 0.04 0.03 0.01 0.01 0.02 0.04 0.08 0.18 0.16 0.15 0.11 0.13 0.14
0.34 0.30 0.54 0.76 0.80 0.84 0.68 0.56 0.55 0.46 0.44 0.40 0.22 0.25 0.34 0.34 0.42 0.27 0.06 0.09 0.08 0.06 0.05 0.03 0.02 0.01 0.02 0.02 0.03 0.05 0.03 0.01 0.00 0.00 0.01 0.04 0.10 0.10 0.09 0.12 0.16 0.15 0.15
0.64 0.83 0.70 0.63 0.80 0.83 0.78 0.68 0.50 0.49 0.44 0.40 0.34 0.23 0.23 0.22 0.23 0.16 0.12 0.11 0.08 0.09 0.08 0.06 0.04 0.04 0.04 0.04 0.08 0.06 0.02 0.01 0.00 0.00 0.00 0.01 0.03 0.12 0.10 0.15 0.17 0.21 0.27
0.70 0.87 0.96 0.78 0.89 1.02 1.02 0.79 0.62 0.47 0.46 0.40 0.28 0.13 0.07 0.11 0.13 0.16 0.08 0.08 0.09 0.07 0.06 0.07 0.07 0.06 0.07 0.07 0.05 0.05 0.01 0.00 0.00 0.01 0.02 0.03 0.04 0.10 0.15 0.17 0.17 0.20 0.31
0.82 0.94 0.86 0.57 0.62 0.77 0.90 1.01 1.11 0.96 0.82 0.57 0.32 0.19 0.09 0.10 0.15 0.09 0.03 0.06 0.07 0.05 0.07 0.10 0.11 0.10 0.06 0.03 0.03 0.02 0.02 0.02 0.03 0.03 0.03 0.04 0.07 0.11 0.17 0.25 0.39 0.49 0.53
0.79 0.89 1.04 0.74 0.52 0.56 0.77 0.91 0.98 1.17 1.06 0.69 0.25 0.24 0.22 0.23 0.21 0.17 0.11 0.05 0.06 0.03 0.04 0.07 0.09 0.08 0.04 0.02 0.02 0.02 0.01 0.03 0.03 0.02 0.02 0.03 0.03 0.07 0.13 0.24 0.31 0.24 0.20
0.78 0.79 0.87 1.03 0.78 0.66 0.59 0.79 0.92 0.86 0.86 0.82 0.64 0.34 0.22 0.23 0.25 0.24 0.29 0.19 0.11 0.04 0.02 0.04 0.05 0.05 0.04 0.03 0.02 0.02 0.01 0.01 0.01 0.01 0.01 0.02 0.02 0.06 0.14 0.16 0.18 0.16 0.14
1.62 0.97 1.00 1.04 1.42 0.86 0.75 0.63 0.62 0.55 0.43 0.46 0.52 0.53 0.38 0.26 0.19 0.19 0.19 0.17 0.25 0.24 0.14 0.13 0.10 0.07 0.05 0.04 0.04 0.03 0.02 0.01 0.01 0.01 0.01 0.02 0.02 0.02 0.04 0.10 0.13 0.13 0.11
1.93 1.50 1.12 1.33 1.57 1.67 1.20 0.80 0.47 0.43 0.35 0.33 0.35 0.31 0.25 0.18 0.15 0.16 0.11 0.11 0.10 0.15 0.17 0.22 0.20 0.15 0.15 0.12 0.10 0.08 0.05 0.02 0.03 0.03 0.02 0.02 0.02 0.01 0.01 0.03 0.09 0.12 0.14
2.48 2.11 1.52 1.51 1.40 1.48 1.84 1.39 0.54 0.34 0.28 0.36 0.19 0.22 0.27 0.22 0.12 0.12 0.07 0.06 0.05 0.07 0.07 0.12 0.17 0.16 0.16 0.19 0.12 0.15 0.14 0.12 0.07 0.06 0.05 0.05 0.06 0.05 0.03 0.04 0.07 0.09 0.14
1.89 1.98 1.95 1.25 1.30 1.03 1.90 1.84 1.26 0.48 0.40 0.31 0.26 0.13 0.16 0.19 0.18 0.16 0.13 0.11 0.07 0.10 0.15 0.15 0.13 0.14 0.14 0.16 0.18 0.23 0.26 0.21 0.20 0.17 0.13 0.08 0.08 0.07 0.06 0.10 0.28 0.29 0.23
1.43 1.66 1.73 1.45 0.94 0.94 0.99 2.02 1.75 1.01 0.57 0.50 0.41 0.24 0.16 0.12 0.15 0.22 0.21 0.10 0.27 0.32 0.34 0.26 0.25 0.16 0.11 0.14 0.12 0.14 0.17 0.28 0.28 0.25 0.27 0.21 0.12 0.09 0.08 0.06 0.18 0.40 0.56
1.31 1.37 1.58 1.13 0.74 0.81 0.75 1.43 1.74 1.89 0.97 0.59 0.50 0.37 0.24 0.21 0.11 0.14 0.17 0.19 0.30 0.35 0.36 0.31 0.34 0.31 0.26 0.27 0.28 0.23 0.16 0.15 0.23 0.30 0.29 0.28 0.23 0.17 0.13 0.18 0.21 0.25 0.36
1.67 1.72 2.02 1.65 1.04 0.79 0.86 1.09 1.37 1.36 1.51 1.18 0.64 0.38 0.40 0.29 0.29 0.26 0.19 0.16 0.29 0.23 0.22 0.24 0.23 0.28 0.31 0.35 0.34 0.30 0.28 0.28 0.27 0.26 0.34 0.39 0.38 0.39 0.33 0.31 0.30 0.28 0.34
1.74 1.93 2.53 2.34 2.00 1.28 0.75 0.63 0.77 1.06 1.15 1.11 1.28 0.84 0.52 0.41 0.39 0.36 0.23 0.18 0.23 0.16 0.12 0.21 0.21 0.21 0.21 0.27 0.34 0.32 0.32 0.53 0.75 0.77 0.68 0.61 0.60 0.58 0.68 0.54 0.39 0.30 0.28
1.81 1.56 2.36 2.77 2.01 1.48 1.04 0.86 0.89 1.06 0.96 1.12 1.26 1.09 1.07 0.87 0.78 0.45 0.30 0.33 0.25 0.16 0.15 0.16 0.22 0.19 0.14 0.15 0.23 0.25 0.22 0.19 0.30 0.44 0.47 0.35 0.26 0.38 0.44 0.55 0.63 0.52 0.34
2.58 1.53 2.00 3.12 2.62 1.98 1.65 1.90 1.85 1.75 1.28 1.22 1.04 1.16 1.60 1.72 1.48 1.09 0.86 0.79 0.65 0.48 0.52 0.42 0.51 0.51 0.41 0.34 0.32 0.44 0.38 0.24 0.18 0.11 0.14 0.18 0.23 0.22 0.24 0.27 0.31 0.34 0.30
2.03 1.93 1.86 2.68 3.89 2.35 2.14 1.75 1.26 1.21 1.36 1.05 1.25 1.45 1.24 1.39 1.52 1.71 1.74 1.52 1.31 1.27 1.13 1.16 1.02 1.12 1.21 1.08 0.90 0.73 0.72 0.58 0.52 0.30 0.15 0.22 0.25 0.26 0.28 0.26 0.25 0.33 0.42
0.98 2.02 1.96 2.65 2.97 4.34 2.96 2.30 1.42 1.01 0.96 0.91 0.84 0.86 1.02 1.04 1.22 1.46 1.64 1.81 1.81 1.90 1.88 1.97 1.89 1.71 1.52 1.34 1.11 1.00 0.89 0.88 0.86 1.01 0.72 0.36 0.29 0.22 0.23 0.26 0.29 0.35 0.41
0.68 1.47 2.11 2.65 2.35 4.08 4.49 3.81 2.34 1.30 1.08 1.28 1.05 1.08 1.17 1.42 1.50 1.65 1.88 1.85 1.87 1.66 1.49 1.61 1.73 1.47 1.17 0.99 0.91 0.98 1.06 1.06 0.90 0.99 0.94 0.51 0.37 0.21 0.17 0.16 0.19 0.26 0.28